Regional Weather Roundup
Issued by NWS Little Rock, AR

Home | Current Version | Previous Version | Text Only | Print | Product List | Glossary On
Versions: 1 2 3 4 5 6 7 8 9 10 11 12 13 14 15 16 17 18 19 20 21 22 23 24 25 26 27 28 29 30 31 32 33 34 35 36 37 38 39 40 41 42 43 44 45 46 47 48 49 50
000
ASUS44 KLZK 010510
RWRLZK

WEATHER ROUNDUP FOR ARKANSAS
NATIONAL WEATHER SERVICE LITTLE ROCK AR
1200 AM CDT SUN AUG 01 2021

NOTE: "FAIR" INDICATES FEW OR NO CLOUDS BELOW 12,000 FEET WITH NO
SIGNIFICANT WEATHER AND/OR OBSTRUCTIONS TO VISIBILITY.

ARZ001-003-010-029-010600-
NORTHWEST ARKANSAS

CITY           SKY/WX    TMP DP  RH WIND       PRES   REMARKS
FAYETTEVILLE   CLEAR     77  75  93 CALM      30.04R
FORT SMITH     PTCLDY    83  76  79 S5        29.96S HX  91
HARRISON       PTCLDY    77  68  73 N3        30.04R
BENTONVILLE    PTCLDY    78  69  73 NE5       30.07R
ROGERS         PTCLDY    76  67  73 E3        30.06R
SILOAM SPGS    CLEAR     78  70  76 NE6       30.04R
HIGHFILL       PTCLDY    77  66  68 N6        30.04R
$$

ARZ004-005-016-010600-
NORTH CENTRAL ARKANSAS

CITY           SKY/WX    TMP DP  RH WIND       PRES   REMARKS
BATESVILLE     PTCLDY    79  72  79 W6        29.95F
FLIPPIN        MOCLDY    77  68  73 CALM      30.01R
MTN HOME       CLOUDY    74  65  73 CALM      30.00S
$$

ARZ040-041-010600-
WEST CENTRAL ARKANSAS

CITY           SKY/WX    TMP DP  RH WIND       PRES   REMARKS
MENA           CLEAR     81  77  89 CALM      30.03R HX  88
MOUNT IDA      CLEAR     78  75  90 CALM      29.98R
$$

ARZ009-017-025-026-028-010600-
NORTHEAST ARKANSAS

CITY           SKY/WX    TMP DP  RH WIND       PRES   REMARKS
JONESBORO      MOCLDY    79  70  74 NE6       29.94F
NEWPORT        PTCLDY    79  73  82 NE8       29.94F
WALNUT RIDGE   LGT RAIN  76  74  93 E8        29.93F
BLYTHEVILLE    CLOUDY    75  71  87 CALM      29.96F
$$

ARZ032-043-044-010600-
LITTLE ROCK METRO AREA

CITY           SKY/WX    TMP DP  RH WIND       PRES   REMARKS
LITTLE ROCK    CLEAR     84  74  71 SW8       29.95F HX  91
N LTL ROCK NWS   N/A     83  74  74 CALM      29.96R HX  89
NLR AIRPORT    FAIR      82  72  69 SW3       29.96S HX  87
BENTON         CLEAR     84  75  74 CALM      29.96S HX  92
JACKSONVILLE   CLEAR     81  76  85 CALM      29.94S HX  87
CONWAY         MOCLDY    84  81  89 CALM      29.94S HX  98
$$

ARZ022-023-033-042-010600-
REMAINDER OF CENTRAL ARKANSAS

CITY           SKY/WX    TMP DP  RH WIND       PRES   REMARKS
SEARCY         CLEAR     81  76  84 N7        29.95F HX  87
HOT SPRINGS    CLEAR     84  75  74 CALM      29.98S HX  92
RUSSELLVILLE   CLEAR     78  74  87 CALM      29.95S
CLINTON          N/A     77  75  94 CALM      29.96S FOG
$$

ARZ036-010600-
EAST ARKANSAS

CITY           SKY/WX    TMP DP  RH WIND       PRES   REMARKS
WEST MEMPHIS   CLEAR     84  75  74 SW8       29.91F HX  92
$$

ARZ050-053-066-070-073-010600-
SOUTHWEST ARKANSAS

CITY           SKY/WX    TMP DP  RH WIND       PRES   REMARKS
TEXARKANA      CLEAR     85  76  74 S3        29.99R HX  94
EL DORADO      CLEAR     79  77  94 CALM      29.98R
DE QUEEN       CLEAR     80  78  94 CALM      29.97R FOG     HX  88
$$

ARZ056-057-069-010600-
SOUTHEAST ARKANSAS

CITY           SKY/WX    TMP DP  RH WIND       PRES   REMARKS
PINE BLUFF     CLEAR     85  75  72 CALM      29.97R HX  93
STUTTGART      MOCLDY    83  77  82 SW6       29.96S HX  92
MONTICELLO     CLEAR     83  77  82 W3        29.98R HX  92

$$





USA.gov is the U.S. government's official web portal to all federal, state and local government web resources and services.